Location: Dehesa de la Cepeda
(40.6574°N, 4.3013°W)
Time: 08:37:19
(UTC+00:00)

Transit 2A Rocket - Pass Details

Date: 11 August 2021
Orbit: 586 x 917 km, 66.7° (Epoch: 24 September)

Event Time Altitude Azimuth Distance (km) Brightness Sun altitude
Rises 13:32:11 0° 266° (W) 2,914 8.3 60.3°
Reaches altitude 10° 13:35:43 10° 295° (WNW) 2,074 7.5 59.9°
Maximum altitude 13:37:47 13° 322° (NW) 1,939 7.2 59.6°
Drops below altitude 10° 13:39:56 10° 348° (NNW) 2,165 7.3 59.4°
Sets 13:43:49 0° 17° (NNE) 3,177 7.9 58.9°
